Showing default

FORMOSAT-7R/TRITON, 58017

Orbit data source: Space-Track

FORMOSAT-7R/TRITON, 58017 is a payload satellite owned by TASA (TW) in SSO that was launched on Mon, 09 Oct 2023 UTC via a VEGA launch vehicle from the French Guiana (FRGUI). Payload-class satellites include a variety of spacecraft equipped with specific instruments for various scientific and technological missions. These include communications satellites like Starlink; space stations such as the ISS; scientific satellites like the Hubble; Earth observation satellites from companies like Planet Labs, Umbra, and HawkEye 360; GPS; miniature CubeSats for education and research; and military/defense satellites.

Loading next visibility...
Identifier
58017, 2023-155B
Orbit
SSO
Country
Flag of TWTW / TWN
Related business
Manufacturer
TASA
Mission
Operational Civil Earth Obs Sci
Bus & Motor
TRITON, Unknown motor
Mass
241 kg wet, 241 kg dry
Launch date (UTC)
2023-10-09 (2 years ago)
Launch vehicle
VEGA
Launch site
French Guiana (FRGUI)
Object type
Payload
Rocket body
Debris
Shape & HBR
Box + 1 Pan, 1.8 m
Radar Cross Section
2.397 m², Medium (>0.1 m² and < 1m²)

Expand to show TLE details & history
Last TLE update: 4 hours ago

TLE from 4 hours ago
0 FORMOSAT-7R/TRITON
1 58017U 23155B   25308.17018882  .00002795  00000-0  29492-3 0  9992
2 58017  97.8558  26.0821 0002615 100.0880 260.0633 14.90093478112701
Epoch: 2025-11-04T04:05Z
TLE epoch observation values (Epoch: 2025-11-04T04:05:04.314Z)
Latitude
0.00004°
Longitude
-78.84694°
Altitude
600.996 km
Speed
7.559 km/s
True Right ascension
01h 44m 19s
True Declination
0° 00' 00"
Sunlit
Object was in full shadow at epoch
Visualization orbit readout
Latitude
Unknown
Longitude
Unknown
Altitude
Unknown
Speed
Unknown
Apparent Right ascension
Unknown
Apparent Declination
Unknown
Sunlit
N/A
Visualization observer readout
Local Sidereal Time
03:53:52
Azimuth
Unknown
Elevation
Unknown
Doppler factor
Unknown
Orbital elements
Apogee altitude
596.493 km
Perigee altitude
592.846 km
Semi-major axis
6,972.806 km
Eccentricity
0.00026
Inclination
97.8558°
RAAN
26.0821°
Arg. of periapsis
100.088°
True anomaly
260.03379°
Mean anomaly
260.0633°
Eccentric anomaly
260.04854°
Mean motion
3.72762 °/min
Orbital period
96.58 mins
BSTAR
0.00029492
Loading maneuver chart data...
Computing Atmospheric mass density...
Loading historical data...
Loading historical data...
Loading historical data...
Loading historical data...
Loading historical data...
Loading historical data...
Loading historical data...

Documentation

Showing up to 5 results
|